Location: Asheville, NC
(35.6000°N, 82.5500°W)
Time: 04:44:26
(UTC-04:00)

Vanguard 1 - Pass Details

Date: 10 February 2018
Orbit: 650 x 3833 km, 34.3° (Epoch: 24 May)

Event Time Altitude Azimuth Distance (km) Brightness Sun altitude
Rises 19:56:30 0° 264° (W) 3,494 14.4 -22.7°
Reaches altitude 10° 19:59:19 10° 263° (W) 2,315 13.1 -23.3°
Maximum altitude 20:04:16 76° 177° (S) 678 9.1 -24.3°
Enters shadow 20:04:25 75° 154° (SSE) 679 9.0 -24.3°
